St. Thomas, VI

8:59 PM AST on July 22, 2017 (GMT -0400)
King

Weather History for TIST - January, 2013

Change the Weather History Date:

Sunday, January 27, 2013

  Actual Average Record
Temperature  
Mean Temperature 79 °F 79 °F  
Max Temperature 85 °F 85 °F 91 °F (1994)
Min Temperature 72 °F 72 °F 68 °F (1986)
Degree Days  
Heating Degree Days 0 0  
Month to date heating degree days 0 0  
Since 1 July heating degree days 0 0  
Cooling Degree Days 14 14  
Month to date cooling degree days 371 378  
Year to date cooling degree days 371 378  
Growing Degree Days 28 (Base 50)    
Moisture  
Dew Point 70 °F    
Average Humidity 75    
Maximum Humidity 87    
Minimum Humidity 63    
Precipitation  
Precipitation 0.00 in 0.06 in 1.63 in (1995)
Month to date precipitation 0.55 2.13  
Year to date precipitation 0.55 2.13  
Sea Level Pressure  
Sea Level Pressure 30.10 in    
Wind  
Wind Speed 8 mph (East)    
Max Wind Speed 15 mph    
Max Gust Speed 18 mph    
Visibility 10 miles    
Events      
T = Trace of Precipitation, MM = Missing Value Source: NWS Daily Summary

Daily Weather History Graph

Daily Weather History Graph

Search for Another Location

Airport or City:

Trip Planner

Search our weather history database for the weather conditions in past years. The results will help you decide how hot, cold, wet, or windy it might be!

Date:

Astronomy

Jan. 27, 2013 Rise Set
Actual Time 6:54 AM AST 6:11 PM AST
Civil Twilight 6:31 AM AST 6:34 PM AST
Nautical Twilight 6:04 AM AST 7:00 PM AST
Astronomical Twilight 5:38 AM AST 7:26 PM AST
Moon 6:47 PM AST (1/27) 6:55 AM AST (1/27)
Length of Visible Light 12h 03m
Length of Day
11h 17m
Full, 100% of the Moon is Illuminated
Jan 27
Full
Feb 3
Last Quarter
Feb 10
New
Feb 17
First Quarter
Feb 25
Full

Hourly Weather History & Observations

Time (AST) Temp. Heat Index Dew Point Humidity Pressure Visibility Wind Dir Wind Speed Gust Speed Precip Events Conditions
12:53 AM 73.9 °F - 69.1 °F 85% 30.09 in 10.0 mi East 5.8 mph - N/A   Clear
1:53 AM 75.0 °F - 70.0 °F 84% 30.07 in 10.0 mi East 4.6 mph - N/A   Clear
2:53 AM 75.0 °F - 70.0 °F 84% 30.06 in 10.0 mi East 5.8 mph - N/A   Scattered Clouds
3:53 AM 73.9 °F - 70.0 °F 87% 30.05 in 10.0 mi East 5.8 mph - N/A   Scattered Clouds
4:53 AM 73.0 °F - 70.0 °F 90% 30.05 in 10.0 mi East 5.8 mph - N/A   Clear
5:53 AM 73.9 °F - 70.0 °F 87% 30.07 in 10.0 mi ESE 4.6 mph - N/A   Clear
6:53 AM 73.0 °F - 70.0 °F 90% 30.08 in 10.0 mi East 4.6 mph - N/A   Clear
7:53 AM 77.0 °F - 72.0 °F 84% 30.09 in 10.0 mi East 6.9 mph - N/A   Partly Cloudy
8:53 AM 77.0 °F - 71.1 °F 82% 30.12 in 10.0 mi East 9.2 mph - N/A   Clear
9:53 AM 79.0 °F - 69.1 °F 72% 30.13 in 10.0 mi ESE 9.2 mph - N/A   Clear
10:53 AM 81.0 °F 84.4 °F 70.0 °F 69% 30.13 in 10.0 mi ESE 10.4 mph - N/A   Scattered Clouds
11:53 AM 81.0 °F 84.4 °F 70.0 °F 69% 30.12 in 10.0 mi ESE 8.1 mph 18.4 mph N/A   Overcast
12:53 PM 82.9 °F 87.0 °F 70.0 °F 65% 30.11 in 10.0 mi SE 8.1 mph - N/A   Mostly Cloudy
1:53 PM 82.0 °F 86.3 °F 71.1 °F 69% 30.08 in 10.0 mi SE 11.5 mph - N/A   Mostly Cloudy
2:53 PM 82.9 °F 87.0 °F 70.0 °F 65% 30.07 in 10.0 mi Variable 6.9 mph - N/A   Mostly Cloudy
3:53 PM 82.0 °F 84.9 °F 68.0 °F 62% 30.07 in 10.0 mi ENE 9.2 mph - N/A   Scattered Clouds
4:53 PM 81.0 °F 84.9 °F 71.1 °F 72% 30.08 in 10.0 mi ENE 12.7 mph - N/A   Scattered Clouds
5:53 PM 79.0 °F - 70.0 °F 74% 30.09 in 10.0 mi ENE 10.4 mph - N/A   Clear
6:53 PM 78.1 °F - 69.1 °F 74% 30.11 in 10.0 mi ENE 10.4 mph - N/A   Clear
7:53 PM 77.0 °F - 70.0 °F 79% 30.12 in 10.0 mi ENE 6.9 mph - N/A   Clear
8:53 PM 77.0 °F - 70.0 °F 79% 30.14 in 10.0 mi East 9.2 mph 18.4 mph N/A   Clear
9:53 PM 78.1 °F - 70.0 °F 76% 30.14 in 10.0 mi East 15.0 mph - N/A   Partly Cloudy
10:53 PM 75.9 °F - 70.0 °F 82% 30.14 in 10.0 mi East 8.1 mph - N/A   Clear
11:53 PM 75.9 °F - 69.1 °F 79% 30.13 in 10.0 mi ENE 10.4 mph - N/A   Clear